Time,TemperatureF,DewpointF,PressureIn,WindDirection,WindDirectionDegrees,WindSpeedMPH,WindSpeedGustMPH,Humidity,HourlyPrecipIn,Conditions,Clouds,dailyrainin,SoftwareType,DateUTC
2013-06-30 20:34:00,76.1,74.2,0.00,SW,234,2.2,2.2,94,0.00,,---,0.83,VWS V14.01,2013-07-01 00:34:00,
2013-06-30 20:39:00,75.4,73.5,29.97,SW,224,0.0,2.7,94,0.08,,---,0.08,VWS V14.01,2013-07-01 00:39:00,
2013-06-30 20:40:00,75.4,73.5,29.97,SSW,213,3.6,3.6,94,0.08,,---,0.08,VWS V14.01,2013-07-01 00:40:00,
2013-06-30 20:44:00,75.6,74.0,29.97,SSW,206,0.0,0.0,95,0.08,,---,0.08,VWS V14.01,2013-07-01 00:44:00,
2013-06-30 20:45:00,75.6,74.0,29.97,SSW,206,0.0,0.0,95,0.08,,---,0.08,VWS V14.01,2013-07-01 00:45:00,
2013-06-30 20:50:00,75.7,74.2,29.97,SSW,206,0.0,0.0,95,0.08,,---,0.08,VWS V14.01,2013-07-01 00:50:00,
2013-06-30 20:55:00,75.9,74.7,29.97,SSW,206,0.0,0.0,96,0.08,,---,0.08,VWS V14.01,2013-07-01 00:55:00,
2013-06-30 20:56:00,76.1,74.9,29.97,SSW,206,0.0,0.0,96,0.08,,---,0.08,VWS V14.01,2013-07-01 00:56:00,
2013-06-30 21:00:00,76.3,75.1,29.97,SSW,206,0.0,0.0,96,0.08,,---,0.08,VWS V14.01,2013-07-01 01:00:00,
2013-06-30 21:01:00,76.3,75.1,29.97,SSW,206,0.0,0.0,96,0.08,,---,0.08,VWS V14.01,2013-07-01 01:01:00,
2013-06-30 21:05:00,76.3,75.1,29.97,SSW,206,0.0,0.0,96,0.08,,---,0.08,VWS V14.01,2013-07-01 01:05:00,
2013-06-30 21:06:00,76.3,75.1,29.97,SSW,206,0.0,0.0,96,0.08,,---,0.08,VWS V14.01,2013-07-01 01:06:00,
2013-06-30 21:10:00,76.5,75.2,29.97,SSW,206,0.0,0.0,96,0.08,,---,0.08,VWS V14.01,2013-07-01 01:10:00,
2013-06-30 21:11:00,76.5,75.2,29.97,SSW,206,0.0,0.0,96,0.08,,---,0.08,VWS V14.01,2013-07-01 01:11:00,
2013-06-30 21:15:00,76.5,75.2,29.97,SSW,206,0.0,0.0,96,0.08,,---,0.08,VWS V14.01,2013-07-01 01:15:00,
2013-06-30 21:16:00,76.5,75.2,29.97,SSW,206,0.0,0.0,96,0.08,,---,0.08,VWS V14.01,2013-07-01 01:16:00,
2013-06-30 21:17:00,76.5,75.2,29.97,SSW,206,0.0,0.0,96,0.08,,---,0.08,VWS V14.01,2013-07-01 01:17:00,
2013-06-30 21:20:00,76.5,75.2,29.97,SSW,206,0.0,0.0,96,0.08,,---,0.08,VWS V14.01,2013-07-01 01:20:00,
2013-06-30 21:21:00,76.5,75.2,29.97,SSW,206,0.0,0.0,96,0.08,,---,0.08,VWS V14.01,2013-07-01 01:21:00,
2013-06-30 21:22:00,76.3,75.1,29.97,SSW,206,0.0,0.0,96,0.08,,---,0.08,VWS V14.01,2013-07-01 01:22:00,
2013-06-30 21:25:00,76.3,75.1,29.97,SSW,206,0.0,0.0,96,0.08,,---,0.08,VWS V14.01,2013-07-01 01:25:00,
2013-06-30 21:26:00,76.3,75.1,29.97,SSW,206,0.0,0.0,96,0.08,,---,0.08,VWS V14.01,2013-07-01 01:26:00,
2013-06-30 21:27:00,76.3,75.1,29.97,SSW,206,0.0,0.0,96,0.08,,---,0.08,VWS V14.01,2013-07-01 01:27:00,
2013-06-30 21:31:00,76.5,75.2,29.97,SSW,206,0.0,0.0,96,0.08,,---,0.08,VWS V14.01,2013-07-01 01:31:00,
2013-06-30 21:32:00,76.5,75.2,29.97,SSW,206,0.0,0.0,96,0.08,,---,0.08,VWS V14.01,2013-07-01 01:32:00,
2013-06-30 21:36:00,76.5,75.2,29.97,SSW,206,0.0,0.0,96,0.04,,---,0.08,VWS V14.01,2013-07-01 01:36:00,
2013-06-30 21:37:00,76.5,75.2,29.97,SSW,206,0.0,0.0,96,0.04,,---,0.08,VWS V14.01,2013-07-01 01:37:00,
2013-06-30 21:41:00,76.6,75.4,29.97,SSW,206,0.0,0.0,96,0.00,,---,0.08,VWS V14.01,2013-07-01 01:41:00,
2013-06-30 21:42:00,76.6,75.4,29.97,SSW,206,0.0,0.0,96,0.00,,---,0.08,VWS V14.01,2013-07-01 01:42:00,
2013-06-30 21:46:00,76.6,75.4,29.97,SSW,206,0.0,0.0,96,0.00,,---,0.08,VWS V14.01,2013-07-01 01:46:00,
2013-06-30 21:47:00,76.6,75.4,29.97,SSW,206,0.0,0.0,96,0.00,,---,0.08,VWS V14.01,2013-07-01 01:47:00,
2013-06-30 21:51:00,76.6,75.4,29.97,SSW,206,0.0,0.0,96,0.00,,---,0.08,VWS V14.01,2013-07-01 01:51:00,
2013-06-30 21:52:00,76.8,75.3,29.97,SSW,206,0.0,0.0,95,0.00,,---,0.08,VWS V14.01,2013-07-01 01:52:00,
2013-06-30 21:53:00,76.8,75.3,29.97,SSW,206,0.0,0.0,95,0.00,,---,0.08,VWS V14.01,2013-07-01 01:53:00,
2013-06-30 21:56:00,76.8,75.3,29.97,SSW,206,0.0,0.0,95,0.00,,---,0.08,VWS V14.01,2013-07-01 01:56:00,
2013-06-30 21:57:00,76.8,75.3,29.97,SSW,206,0.0,0.0,95,0.00,,---,0.08,VWS V14.01,2013-07-01 01:57:00,
2013-06-30 21:58:00,76.8,75.3,29.97,SSW,206,0.0,0.0,95,0.00,,---,0.08,VWS V14.01,2013-07-01 01:58:00,
2013-06-30 22:01:00,76.8,75.3,29.97,SSW,206,0.0,0.0,95,0.00,,---,0.08,VWS V14.01,2013-07-01 02:01:00,
2013-06-30 22:02:00,76.8,75.3,29.97,SSW,206,0.0,0.0,95,0.00,,---,0.08,VWS V14.01,2013-07-01 02:02:00,
2013-06-30 22:03:00,76.8,75.3,29.97,SSW,206,0.0,0.0,95,0.00,,---,0.08,VWS V14.01,2013-07-01 02:03:00,
2013-06-30 22:06:00,76.8,75.3,29.97,SSW,206,0.0,0.0,95,0.00,,---,0.08,VWS V14.01,2013-07-01 02:06:00,
2013-06-30 22:07:00,76.8,75.3,29.97,SSW,206,0.0,0.0,95,0.00,,---,0.08,VWS V14.01,2013-07-01 02:07:00,
2013-06-30 22:08:00,76.8,75.3,29.97,SSW,206,0.0,0.0,95,0.00,,---,0.08,VWS V14.01,2013-07-01 02:08:00,
2013-06-30 22:11:00,76.8,75.3,29.97,SSW,206,0.0,0.0,95,0.00,,---,0.08,VWS V14.01,2013-07-01 02:11:00,
2013-06-30 22:12:00,76.8,75.3,29.97,SSW,206,0.0,0.0,95,0.00,,---,0.08,VWS V14.01,2013-07-01 02:12:00,
2013-06-30 22:13:00,76.8,75.3,29.97,SSW,206,0.0,0.0,95,0.00,,---,0.08,VWS V14.01,2013-07-01 02:13:00,
2013-06-30 22:17:00,76.8,75.3,29.97,SSW,206,0.0,0.0,95,0.00,,---,0.08,VWS V14.01,2013-07-01 02:17:00,
2013-06-30 22:18:00,76.8,75.3,29.97,SSW,206,0.0,0.0,95,0.00,,---,0.08,VWS V14.01,2013-07-01 02:18:00,
2013-06-30 22:22:00,76.8,75.3,29.97,SSW,206,0.0,0.0,95,0.00,,---,0.08,VWS V14.01,2013-07-01 02:22:00,
2013-06-30 22:23:00,76.8,75.3,29.97,SSW,206,0.0,0.0,95,0.00,,---,0.08,VWS V14.01,2013-07-01 02:23:00,
2013-06-30 22:24:00,76.8,75.3,29.97,SSW,206,0.0,0.0,95,0.00,,---,0.08,VWS V14.01,2013-07-01 02:24:00,
2013-06-30 22:27:00,76.8,75.3,29.97,SSW,206,0.0,0.0,95,0.00,,---,0.08,VWS V14.01,2013-07-01 02:27:00,
2013-06-30 22:28:00,76.8,75.3,29.97,SSW,206,0.0,0.0,95,0.00,,---,0.08,VWS V14.01,2013-07-01 02:28:00,
2013-06-30 22:29:00,76.8,75.3,29.97,SSW,206,0.0,0.0,95,0.00,,---,0.08,VWS V14.01,2013-07-01 02:29:00,
2013-06-30 22:32:00,76.8,75.3,29.97,SSW,206,0.0,0.0,95,0.00,,---,0.08,VWS V14.01,2013-07-01 02:32:00,
2013-06-30 22:33:00,76.8,75.3,29.97,SSW,206,0.0,0.0,95,0.00,,---,0.08,VWS V14.01,2013-07-01 02:33:00,
2013-06-30 22:34:00,76.8,75.3,29.97,SSW,206,0.0,0.0,95,0.00,,---,0.08,VWS V14.01,2013-07-01 02:34:00,
2013-06-30 22:37:00,76.8,75.3,29.97,SSW,206,0.0,0.0,95,0.00,,---,0.08,VWS V14.01,2013-07-01 02:37:00,
2013-06-30 22:38:00,76.8,75.3,29.97,SSW,206,0.0,0.0,95,0.00,,---,0.08,VWS V14.01,2013-07-01 02:38:00,
2013-06-30 22:39:00,76.8,75.3,29.97,SSW,206,0.0,0.0,95,0.00,,---,0.08,VWS V14.01,2013-07-01 02:39:00,
2013-06-30 22:42:00,76.8,75.3,29.97,SSW,206,0.0,0.0,95,0.00,,---,0.08,VWS V14.01,2013-07-01 02:42:00,
2013-06-30 22:43:00,76.8,75.3,29.97,SSW,206,0.0,0.0,95,0.00,,---,0.08,VWS V14.01,2013-07-01 02:43:00,
2013-06-30 22:44:00,76.8,75.3,29.97,SSW,206,0.0,0.0,95,0.00,,---,0.08,VWS V14.01,2013-07-01 02:44:00,
2013-06-30 22:47:00,76.8,75.3,29.97,SSW,206,0.0,0.0,95,0.00,,---,0.08,VWS V14.01,2013-07-01 02:47:00,
2013-06-30 22:48:00,76.8,75.3,29.97,SSW,206,0.0,0.0,95,0.00,,---,0.08,VWS V14.01,2013-07-01 02:48:00,
2013-06-30 22:49:00,76.8,75.3,29.97,SSW,206,0.0,0.0,95,0.00,,---,0.08,VWS V14.01,2013-07-01 02:49:00,
2013-06-30 22:53:00,76.8,75.3,29.97,SSW,206,0.0,0.0,95,0.00,,---,0.08,VWS V14.01,2013-07-01 02:53:00,
2013-06-30 22:54:00,76.8,75.3,29.97,SSW,206,0.0,0.0,95,0.00,,---,0.83,VWS V14.01,2013-07-01 02:54:00,
2013-06-30 22:58:00,76.8,75.3,29.97,SSW,199,0.0,0.0,95,0.00,,---,0.08,VWS V14.01,2013-07-01 02:58:00,
2013-06-30 22:59:00,76.8,75.3,29.97,SSW,199,0.0,0.0,95,0.00,,---,0.08,VWS V14.01,2013-07-01 02:59:00,
2013-06-30 23:00:00,76.8,75.3,29.97,SSW,199,0.0,0.0,95,0.00,,---,0.08,VWS V14.01,2013-07-01 03:00:00,
2013-06-30 23:03:00,76.8,75.3,29.97,South,176,0.0,0.0,95,0.00,,---,0.08,VWS V14.01,2013-07-01 03:03:00,
2013-06-30 23:04:00,76.8,75.3,29.97,South,176,0.0,0.0,95,0.00,,---,0.08,VWS V14.01,2013-07-01 03:04:00,
2013-06-30 23:05:00,76.8,75.3,29.97,South,178,0.0,0.0,95,0.00,,---,0.08,VWS V14.01,2013-07-01 03:05:00,
2013-06-30 23:08:00,77.0,75.1,29.97,South,178,0.0,0.0,94,0.00,,---,0.08,VWS V14.01,2013-07-01 03:08:00,
2013-06-30 23:09:00,77.0,75.1,29.97,SSW,193,0.0,0.0,94,0.00,,---,0.08,VWS V14.01,2013-07-01 03:09:00,
2013-06-30 23:10:00,77.0,75.1,29.97,SSW,193,0.0,0.0,94,0.00,,---,0.08,VWS V14.01,2013-07-01 03:10:00,
2013-06-30 23:13:00,77.0,75.1,29.97,SSW,193,0.0,0.0,94,0.00,,---,0.08,VWS V14.01,2013-07-01 03:13:00,
2013-06-30 23:14:00,77.0,75.1,29.97,SSW,193,0.0,0.0,94,0.00,,---,0.08,VWS V14.01,2013-07-01 03:14:00,
2013-06-30 23:15:00,77.0,75.1,29.97,SSW,193,0.0,0.0,94,0.00,,---,0.08,VWS V14.01,2013-07-01 03:15:00,
2013-06-30 23:19:00,77.0,75.1,29.97,SSW,193,0.0,0.0,94,0.00,,---,0.08,VWS V14.01,2013-07-01 03:19:00,
2013-06-30 23:20:00,76.8,75.3,29.97,SSW,193,0.0,0.0,95,0.00,,---,0.08,VWS V14.01,2013-07-01 03:20:00,
2013-06-30 23:24:00,77.0,75.1,29.97,SSW,193,0.0,0.0,94,0.00,,---,0.08,VWS V14.01,2013-07-01 03:24:00,
2013-06-30 23:25:00,77.0,75.1,29.97,SSW,193,0.0,0.0,94,0.00,,---,0.08,VWS V14.01,2013-07-01 03:25:00,
2013-06-30 23:29:00,77.0,75.1,29.97,SSW,193,0.0,0.0,94,0.00,,---,0.08,VWS V14.01,2013-07-01 03:29:00,
2013-06-30 23:30:00,77.0,75.1,29.97,SSW,193,0.0,0.0,94,0.00,,---,0.08,VWS V14.01,2013-07-01 03:30:00,
2013-06-30 23:34:00,77.0,75.1,29.97,SSW,193,0.0,0.0,94,0.00,,---,0.08,VWS V14.01,2013-07-01 03:34:00,
2013-06-30 23:35:00,77.0,75.1,29.97,SSW,193,0.0,0.0,94,0.00,,---,0.08,VWS V14.01,2013-07-01 03:35:00,
2013-06-30 23:36:00,77.0,75.1,29.97,SSW,193,0.0,0.0,94,0.00,,---,0.08,VWS V14.01,2013-07-01 03:36:00,
2013-06-30 23:39:00,76.8,75.3,29.97,SSW,193,0.0,0.0,95,0.00,,---,0.83,VWS V14.01,2013-07-01 03:39:00,
2013-06-30 23:40:00,76.8,75.3,29.97,SSW,193,0.0,0.0,95,0.00,,---,0.08,VWS V14.01,2013-07-01 03:40:00,
2013-06-30 23:41:00,76.8,75.3,29.97,SSW,193,0.0,0.0,95,0.00,,---,0.08,VWS V14.01,2013-07-01 03:41:00,
2013-06-30 23:44:00,76.8,75.3,29.97,SSW,193,0.0,0.0,95,0.00,,---,0.08,VWS V14.01,2013-07-01 03:44:00,
2013-06-30 23:45:00,76.8,75.3,29.97,SSW,193,0.0,0.0,95,0.00,,---,0.08,VWS V14.01,2013-07-01 03:45:00,
2013-06-30 23:46:00,76.8,75.3,29.97,SSW,193,0.0,0.0,95,0.00,,---,0.08,VWS V14.01,2013-07-01 03:46:00,
2013-06-30 23:49:00,76.8,75.3,29.97,SSW,193,0.0,0.0,95,0.00,,---,0.08,VWS V14.01,2013-07-01 03:49:00,
2013-06-30 23:50:00,77.0,75.1,29.97,SSW,193,0.0,0.0,94,0.00,,---,0.08,VWS V14.01,2013-07-01 03:50:00,
2013-06-30 23:51:00,77.0,75.1,29.97,SSW,193,0.0,0.0,94,0.00,,---,0.08,VWS V14.01,2013-07-01 03:51:00,
2013-06-30 23:54:00,77.0,75.1,29.97,SSW,193,0.0,0.0,94,0.00,,---,0.08,VWS V14.01,2013-07-01 03:54:00,
2013-06-30 23:55:00,77.0,75.1,29.97,SSW,193,0.0,0.0,94,0.00,,---,0.08,VWS V14.01,2013-07-01 03:55:00,
2013-06-30 23:56:00,76.8,75.3,29.97,SSW,193,0.0,0.0,95,0.00,,---,0.08,VWS V14.01,2013-07-01 03:56:00,
2013-06-30 23:59:00,76.8,75.3,29.97,SSW,193,0.0,0.0,95,0.00,,---,0.08,VWS V14.01,2013-07-01 03:59:00,